Location: Unspecified
(35.7250°N, 0.0000°E)
Time: 03:13:04
(UTC+00:00)

Tiros 1 - Pass Details

Date: 26 June 2019
Orbit: 630 x 664 km, 48.4° (Epoch: 21 July)

Event Time Altitude Azimuth Distance (km) Brightness Sun altitude
Rises 22:07:04 0° 259° (W) 2,962 10.8 -24.9°
Reaches altitude 10° 22:09:35 10° 268° (W) 2,047 10.0 -25.1°
Maximum altitude 22:13:53 34° 334° (NNW) 1,054 8.8 -25.5°
Drops below altitude 10° 22:18:11 10° 40° (NE) 2,032 9.9 -25.9°
Sets 22:20:41 0° 50° (NE) 2,937 10.7 -26.2°
